Skip Page Navigation
NASA JPL Caltech
NASA Logo - Jet Propulsion Laboratory + View the NASA Portal
+ Center for Near-Earth Object Studies
JPL Home Earth Solar System Stars & Galaxies Technology
JPL Solar System Dynamics
BODIES ORBITS EPHEMERIDES TOOLS PHYSICAL DATA DISCOVERY FAQ SITE MAP
IMPORTANT: The SSD Announcement email list is now available. Major changes are coming in the near future, including possible hostname and/or URL changes. To be notified of such changes, subscribe to this email list.

Please visit this page for more details.


JPL Small-Body Database Browser
Search: [ help ]  
34035 (2000 OV27)
Classification: Main-belt Asteroid          SPK-ID: 2034035
Ephemeris | Orbit Diagram | Orbital Elements | Mission Design | Physical Parameters | Discovery Circumstances | Close-Approach Data ]

[ show orbit diagram ]
Orbital Elements at Epoch 2458600.5 (2019-Apr-27.0) TDB
Reference: JPL 19 (heliocentric ecliptic J2000)
 Element Value Uncertainty (1-sigma)   Units 
e .1387437959751207 7.9841e-08  
a 2.534351473567244 1.3196e-08 au
q 2.182725929789384 2.0591e-07 au
i 15.86410287641701 6.3707e-06 deg
node 148.3948489604865 1.4802e-05 deg
peri 188.8018105619367 2.0752e-05 deg
M 226.1029777062208 1.4843e-05 deg
tp 2459148.609224996891
(2020-Oct-26.10922500)
6.2791e-05 TDB
period 1473.664743387264
4.03
1.151e-05
3.151e-08
d
yr
n .244288941304607 1.9079e-09 deg/d
Q 2.885977017345104 1.5027e-08 au
  Orbit Determination Parameters
   # obs. used (total)      1387  
   data-arc span      7739 days (21.19 yr)  
   first obs. used      1998-03-04  
   last obs. used      2019-05-12  
   planetary ephem.      DE431  
   SB-pert. ephem.      SB431-N16  
   condition code      0  
   norm. resid. RMS      .50923  
   source      ORB  
   producer      Otto Matic  
   solution date      2019-May-30 03:49:52  

Additional Information
 Earth MOID = 1.17288 au 
 Jupiter MOID = 2.49209 au 
 T_jup = 3.383 
[ show covariance matrix ]

Ephemeris | Orbit Diagram | Orbital Elements | Mission Design | Physical Parameters | Discovery Circumstances | Close-Approach Data ]

Physical Parameter Table
Parameter Symbol Value Units Sigma Reference Notes
absolute magnitude H 13.5   n/a MPO337539  
diameter diameter 5.799 km 0.124 urn:nasa:pds:neowise_diameters_albedos::2.0[mainbelt] (http://adsabs.harvard.edu/abs/2011ApJ...741...68M)  
rotation period rot_per 10. h n/a LCDB (Rev. 2019-January); Warner et al., 2009 lower-limit; Incomplete or inconclusive result.
Published Reference List:
[Kim, M.-J.; Choi, Y.-J.; Moon, H.-K.; Byun, Y.-I.; et al. (2014) Astron. J. 147, A56.]
geometric albedo albedo 0.276   0.034 urn:nasa:pds:neowise_diameters_albedos::2.0[mainbelt] (http://adsabs.harvard.edu/abs/2011ApJ...741...68M)  

34035 (2000 OV27)          Discovered 2000-Jul-23 by LINEAR at Socorro
Reference: 20020128/Numbers.arcLast Updated: 2004-04-19

[ show close-approach data ]
Ephemeris | Orbit Diagram | Orbital Elements | Mission Design | Physical Parameters | Discovery Circumstances | Close-Approach Data ]
ABOUT SSD CREDITS/AWARDS PRIVACY/COPYRIGHT GLOSSARY LINKS
FirstGov
(server date/time)  
NASA Home Page
Site Manager:   Ryan S. Park
Webmaster  Alan B. Chamberlin